TJS-16

Last updated on Mon Sep 07 2026 00:03:02 GMT+0000 (Coordinated Universal Time)

1 63397U 25064A 26249.75866441 -.00000121 00000+0 00000+0 0 9992 2 63397 1.3020 80.7675 0001758 246.9179 91.9159 1.00272609 5206
UTC large
Height (km)
Speed (km/s)
/
Latitude / Longitude
Inclination (degrees)
Orbital Period (minutes)
Azimuth
Elevation
Range (km)
Doppler Factor

Next 0 passes for location: London (51.5072 / 0.1276)

No passes found over London.
TJS-16